Weather in Akzhal

Kazakhstan     47°44′50″N   74°01′32″E
temp.,
°C
wind,
m/s
gust,
m/s
humid.,
%
clouds,
%
prec.,
mm/h
press.,
hPa
HPBL,
m
26 february, fri
fri2600:00−30wsw34902 0.0 104326
03:00−31wsw33930 0.0 104420
06:00−33wsw12968 0.0 104519
09:00−32wsw129261 0.0 104619
12:00−26sw238930 0.0 1044240
15:00−23sw348764 0.0 1043411
18:00−26s339448 0.0 104322
21:00−30s121000 0.0 104419
27 february, sat
sat2700:00−30e1110022 0.0 104319
03:00−29ene229975 0.0 104219
06:00−28ene129682 0.0 104119
09:00−25e1193100 0.0 104136
12:00−22ese1186100 0.0 1039175
15:00−18se2283100 0.0 1037242
18:00−19sse2290100 0.0 103722
21:00−22sse239490 0.0 103920
28 february, sun
sun2800:00−22e228986 0.0 103820
03:00−20ese2290100 0.0 103730
06:00−19se2392100 0.0 103556
09:00−15sse5994100 0.1 1033270
12:00−12sse6894100 0.4 1030283
15:00−9s6892100 0.2 1027327
18:00−8s5894100 0.2 1027290
21:00−8s4693100 0.0 1027139
1 march, mon
mon100:00−8s4789100 0.0 1027136
03:00−9s448797 0.0 102653
06:00−9s338597 0.0 102629
09:00−8s338496 0.0 102647
12:00−5s358098 0.0 1025217
15:00−4sse348397 0.0 1024266
18:00−6sse348999 0.0 102450
21:00−9sse3387100 0.0 102522
2 march, tue
tue200:00−7sse2284100 0.0 102423
03:00−8sse2383100 0.0 102323
06:00−9sse2283100 0.0 102221
09:00−9s2384100 0.0 102130
12:00−5ssw3483100 0.0 1020180
15:00−1wsw3681100 0.0 1019321
18:00−4wsw448369 0.0 102043
21:00−7wnw448819 0.0 102328